Overview Statistics Trail Chart Weather Telemetry Raw packets
 

This is the latest recevied weather packets stored in our database for station/object SQ5DCP-1. If no packets are shown the sender has not sent any weather packets the latest 10 day(s).

<< 116 117 118 119 120 121 122 >>
Time Temp. Humidity Pressure Rain* Wind** Luminosity Snow
1787815520 17.22° C 63% 1024.1 hPa 0 mm - - -
1787815218 17.22° C 65% 1024.1 hPa 0 mm - - -
1787814916 17.22° C 66% 1024 hPa 0 mm - - -
1787814634 16.67° C 66% 1024 hPa 0 mm - - -
1787814333 16.67° C 67% 1023.8 hPa 0 mm - - -
1787814163 13.33° C 77% 1023.8 hPa 0 mm - - -
1787814063 16.11° C 68% 1023.9 hPa 0 mm - - -
1787814030 16.11° C 68% 1023.9 hPa 0 mm - - -
1787813728 15.56° C 69% 1023.9 hPa 0 mm - - -
1787813462 15.56° C 69% 1023.8 hPa 0 mm - - -
1787813426 15.56° C 69% 1023.8 hPa 0 mm - - -
1787813124 15.56° C 70% 1023.8 hPa 0 mm - - -
1787812821 15° C 71% 1023.8 hPa 0 mm - - -
1787812520 15° C 72% 1023.8 hPa 0 mm - - -
1787812251 14.44° C 73% 1023.8 hPa 0 mm - - -
1787812218 14.44° C 73% 1023.8 hPa 0 mm - - -
1787811952 11.67° C 80% 1023.8 hPa 0 mm - - -
1787811916 14.44° C 73% 1023.8 hPa 0 mm - - -
1787811665 13.89° C 75% 1023.7 hPa 0 mm - - -
1787811634 13.89° C 75% 1023.7 hPa 0 mm - - -
1787811332 13.89° C 75% 1023.8 hPa 0 mm - - -
1787811262 11.11° C 75% 1023.8 hPa 0 mm - - -
1787811153 11.11° C 75% 1023.8 hPa 0 mm - - -
1787811031 13.33° C 76% 1023.8 hPa 0 mm - - -
1787810728 13.33° C 76% 1023.8 hPa 0 mm - - -

* Rain latest hour (hover to see other rain measurements)
** Current wind speed in m/s (hover to see current wind gust speed)